| time (UTC) | temp C | wind direction | speed KPH | gust KPH | rain 1hr cm | rain 24hr cm | rain mn cm | humidity % | barometer mb |
| 20260504110525 | 7 | 237 | 0.0 | 3.2 | 0.00 | 0.00 | 0.00 | 80 | 1009.1 |
| 20260504100520 | 7 | 0.0 | 0.0 | 0.00 | 0.00 | 0.00 | 80 | 1009.0 | |
| 20260504081518 | 7 | 0.0 | 0.0 | 0.00 | 0.00 | 0.00 | 84 | 1009.5 | |
| 20260504080534 | 7 | 252 | 3.2 | 6.4 | 0.00 | 0.00 | 0.00 | 85 | 1009.5 |
| 20260504050523 | 8 | 231 | 3.2 | 3.2 | 0.00 | 0.00 | 0.00 | 74 | 1010.1 |
| 20260504045523 | 8 | 229 | 6.4 | 14.5 | 0.00 | 0.00 | 0.00 | 75 | 1009.9 |
| 20260504044520 | 8 | 251 | 6.4 | 14.5 | 0.00 | 0.00 | 0.00 | 74 | 1010.0 |
| 20260504043537 | 7 | 227 | 3.2 | 9.7 | 0.00 | 0.00 | 0.00 | 74 | 1010.1 |
| 20260504042533 | 6 | 203 | 1.6 | 6.4 | 0.00 | 0.00 | 0.00 | 80 | 1010.2 |
| 20260504041529 | 5 | 0.0 | 0.0 | 0.00 | 0.00 | 0.00 | 82 | 1010.2 | |
| 20260504040525 | 5 | 0.0 | 0.0 | 0.00 | 0.00 | 0.00 | 83 | 1010.1 | |
| 20260504035522 | 4 | 0.0 | 0.0 | 0.00 | 0.00 | 0.00 | 85 | 1010.1 | |
| 20260504034538 | 4 | 0.0 | 0.0 | 0.00 | 0.00 | 0.00 | 84 | 1010.0 | |
| 20260504033615 | 4 | 0.0 | 0.0 | 0.00 | 0.00 | 0.00 | 84 | 1010.0 | |
| 20260504032530 | 3 | 0.0 | 0.0 | 0.00 | 0.00 | 0.00 | 84 | 1010.0 | |
| 20260504031526 | 3 | 0.0 | 0.0 | 0.00 | 0.00 | 0.00 | 82 | 1009.9 | |
| 20260504030542 | 3 | 0.0 | 0.0 | 0.00 | 0.00 | 0.00 | 82 | 1009.9 | |
| 20260504025539 | 3 | 0.0 | 0.0 | 0.00 | 0.00 | 0.00 | 82 | 1009.9 | |
| 20260504024534 | 3 | 0.0 | 0.0 | 0.00 | 0.00 | 0.00 | 83 | 1009.7 | |
| 20260504023530 | 3 | 220 | 0.0 | 3.2 | 0.00 | 0.00 | 0.00 | 81 | 1009.8 |
| 20260504022526 | 3 | 0.0 | 0.0 | 0.00 | 0.00 | 0.00 | 82 | 1009.9 | |
| 20260504021622 | 3 | 0.0 | 0.0 | 0.00 | 0.00 | 0.00 | 82 | 1010.0 | |
| 20260504020518 | 3 | 206 | 1.6 | 4.8 | 0.00 | 0.00 | 0.00 | 79 | 1010.2 |
| 20260504015534 | 3 | 210 | 4.8 | 6.4 | 0.00 | 0.00 | 0.00 | 78 | 1010.1 |
| 20260504014530 | 3 | 216 | 4.8 | 6.4 | 0.00 | 0.00 | 0.00 | 78 | 1010.2 |
| 20260504013526 | 2 | 227 | 3.2 | 4.8 | 0.00 | 0.00 | 0.00 | 85 | 1010.0 |
| 20260504012542 | 3 | 220 | 0.0 | 1.6 | 0.00 | 0.00 | 0.00 | 83 | 1009.9 |
| 20260504011518 | 3 | 0.0 | 0.0 | 0.00 | 0.00 | 0.00 | 79 | 1009.8 | |
| 20260504010534 | 3 | 0.0 | 0.0 | 0.00 | 0.00 | 0.00 | 77 | 1009.6 | |
| 20260504005531 | 4 | 0.0 | 0.0 | 0.00 | 0.00 | 0.00 | 77 | 1009.6 | |
| 20260504004526 | 5 | 208 | 1.6 | 4.8 | 0.00 | 0.00 | 0.00 | 74 | 1009.4 |
| 20260504003523 | 5 | 0.0 | 0.0 | 0.00 | 0.00 | 0.00 | 71 | 1009.1 | |
| 20260504002519 | 6 | 233 | 1.6 | 4.8 | 0.00 | 0.00 | 0.00 | 64 | 1008.9 |
| 20260504001536 | 7 | 225 | 0.0 | 1.6 | 0.00 | 0.00 | 0.00 | 62 | 1008.8 |
| 20260504000532 | 7 | 0.0 | 0.0 | 0.00 | 0.00 | 0.00 | 60 | 1008.6 | |
| 20260503235609 | 7 | 269 | 1.6 | 4.8 | 0.00 | 0.00 | 0.00 | 64 | 1008.5 |
| 20260503234525 | 7 | 0.0 | 0.0 | 0.00 | 0.00 | 0.00 | 56 | 1008.3 | |
| 20260503233520 | 8 | 0.0 | 0.0 | 0.00 | 0.00 | 0.00 | 56 | 1008.1 | |
| 20260503232557 | 9 | 0.0 | 0.0 | 0.00 | 0.00 | 0.00 | 49 | 1008.2 | |
| 20260503231534 | 10 | 0.0 | 0.0 | 0.00 | 0.00 | 0.00 | 45 | 1007.9 | |
| 20260503230550 | 11 | 305 | 3.2 | 6.4 | 0.00 | 0.00 | 0.00 | 44 | 1008.0 |
| 20260503225526 | 11 | 44 | 1.6 | 9.7 | 0.00 | 0.00 | 0.00 | 40 | 1007.9 |
| 20260503224521 | 11 | 36 | 1.6 | 6.4 | 0.00 | 0.00 | 0.00 | 39 | 1007.9 |
| 20260503223517 | 12 | 17 | 1.6 | 4.8 | 0.00 | 0.00 | 0.00 | 39 | 1008.0 |
| 20260503222533 | 12 | 43 | 1.6 | 4.8 | 0.00 | 0.00 | 0.00 | 38 | 1008.0 |
| 20260503221529 | 12 | 358 | 6.4 | 11.3 | 0.00 | 0.00 | 0.00 | 39 | 1008.0 |
| 20260503220525 | 12 | 311 | 8.0 | 16.1 | 0.00 | 0.00 | 0.00 | 39 | 1008.0 |
| 20260503215602 | 12 | 310 | 8.0 | 17.7 | 0.00 | 0.00 | 0.00 | 39 | 1008.1 |
| 20260503214517 | 12 | 300 | 4.8 | 9.7 | 0.00 | 0.00 | 0.00 | 39 | 1008.0 |
| 20260503213534 | 12 | 352 | 6.4 | 16.1 | 0.00 | 0.00 | 0.00 | 40 | 1008.1 |
| 20260503212530 | 12 | 269 | 12.9 | 20.9 | 0.00 | 0.00 | 0.00 | 40 | 1008.2 |
| 20260503211527 | 11 | 282 | 12.9 | 22.5 | 0.00 | 0.00 | 0.00 | 41 | 1008.1 |
| 20260503210522 | 11 | 329 | 11.3 | 22.5 | 0.00 | 0.00 | 0.00 | 41 | 1008.2 |
| 20260503205518 | 11 | 334 | 8.0 | 17.7 | 0.00 | 0.00 | 0.00 | 42 | 1008.2 |
| 20260503204554 | 11 | 285 | 8.0 | 14.5 | 0.00 | 0.00 | 0.00 | 43 | 1008.3 |
| 20260503203530 | 10 | 311 | 8.0 | 22.5 | 0.00 | 0.00 | 0.00 | 44 | 1008.3 |
| 20260503202525 | 10 | 277 | 11.3 | 22.5 | 0.00 | 0.00 | 0.00 | 44 | 1008.2 |
| 20260503201522 | 10 | 292 | 11.3 | 22.5 | 0.00 | 0.00 | 0.00 | 45 | 1008.4 |
| 20260503200519 | 11 | 269 | 11.3 | 24.1 | 0.00 | 0.00 | 0.00 | 45 | 1008.4 |
| 20260503195515 | 11 | 279 | 9.7 | 20.9 | 0.00 | 0.00 | 0.00 | 46 | 1008.6 |
| 20260503194532 | 10 | 252 | 6.4 | 16.1 | 0.00 | 0.00 | 0.00 | 48 | 1008.6 |
| 20260503193528 | 10 | 272 | 6.4 | 14.5 | 0.00 | 0.00 | 0.00 | 47 | 1008.9 |
| 20260503192523 | 10 | 282 | 12.9 | 25.7 | 0.00 | 0.00 | 0.00 | 46 | 1008.9 |
| 20260503191539 | 10 | 304 | 9.7 | 17.7 | 0.00 | 0.00 | 0.00 | 47 | 1008.9 |
| 20260503190555 | 9 | 289 | 9.7 | 17.7 | 0.00 | 0.00 | 0.00 | 47 | 1009.2 |
| 20260503185531 | 9 | 296 | 11.3 | 22.5 | 0.00 | 0.00 | 0.00 | 47 | 1009.4 |
| 20260503184527 | 9 | 301 | 12.9 | 25.7 | 0.00 | 0.00 | 0.00 | 47 | 1009.4 |
| 20260503183524 | 9 | 312 | 8.0 | 16.1 | 0.00 | 0.00 | 0.00 | 48 | 1009.3 |
| 20260503182520 | 8 | 294 | 9.7 | 20.9 | 0.00 | 0.00 | 0.00 | 49 | 1009.6 |
| 20260503181517 | 9 | 274 | 14.5 | 24.1 | 0.00 | 0.00 | 0.00 | 48 | 1009.5 |
| 20260503180533 | 8 | 282 | 11.3 | 20.9 | 0.00 | 0.00 | 0.00 | 49 | 1009.5 |
| 20260503175530 | 8 | 280 | 14.5 | 30.6 | 0.00 | 0.00 | 0.00 | 49 | 1009.6 |
| 20260503174545 | 9 | 339 | 6.4 | 12.9 | 0.00 | 0.00 | 0.00 | 49 | 1009.6 |
| 20260503173520 | 8 | 313 | 8.0 | 17.7 | 0.00 | 0.00 | 0.00 | 49 | 1009.7 |
| 20260503172616 | 8 | 347 | 8.0 | 16.1 | 0.00 | 0.00 | 0.00 | 50 | 1009.5 |
| 20260503171532 | 8 | 311 | 11.3 | 20.9 | 0.00 | 0.00 | 0.00 | 49 | 1009.6 |
| 20260503170528 | 8 | 316 | 6.4 | 11.3 | 0.00 | 0.00 | 0.00 | 48 | 1009.5 |
| 20260503150521 | 8 | 14 | 9.7 | 20.9 | 0.00 | 0.10 | 0.00 | 57 | 1010.0 |
| 20260503130534 | 6 | 36 | 4.8 | 11.3 | 0.00 | 0.10 | 0.00 | 75 | 1010.7 |